[[{"header":{"parameterUnit":"m.s-1","parameterCategory":1,"la1":30.2991,"la2":30.254,"lo1":-89.0895,"lo2":-89.0444,"dy":0.0017,"dx":0.0017,"nx":28,"ny":28,"refTime":"2025-12-19T03:00:00:Z","depth":0,"parameterNumber":2,"parameterNumberName":"U-component_of_WINDS"},"data":[0,0,0,0,0,0,0,0,0,0,0,0,0,0,0,0,0,0,0,0,0,0,0,0,0,0,0,0,0,0,0,0,0,0,0,0,0,0,0,0,0,0,0,0,0,0,0,0,0,0,0,0,0,0,0,0,0,0,-3.7638,-3.7639,0,-3.7678,-3.7678,-3.7679,-3.7565,-3.7561,-3.7558,-3.7555,-3.7594,-3.7598,-3.7603,0,0,0,0,0,0,0,0,0,0,0,0,0,-3.7462,-3.7466,-3.7638,-3.7639,-3.7639,-3.7678,-3.7678,-3.7679,-3.7565,-3.7561,-3.7557,-3.7553,-3.7593,-3.7598,-3.7603,0,0,0,0,0,0,0,0,0,0,0,0,0,-3.7524,-3.7467,-3.7638,-3.7587,-3.7583,-3.7678,-3.7678,-3.7679,-3.7566,-3.7561,-3.7556,-3.7551,-3.7591,-3.7597,-3.7604,-3.7749,0,0,-3.7623,-3.7626,0,0,0,0,0,0,0,0,-3.752,-3.753,-3.7594,-3.7591,-3.7586,-3.7611,-3.7631,-3.7702,-3.7568,-3.7573,-3.7554,-3.7548,-3.7604,-3.7609,-3.7628,-3.7751,-3.7753,-3.7624,-3.7628,-3.7631,-3.7633,0,0,0,0,0,0,0,-3.7516,-3.7528,-3.7654,-3.7595,-3.7591,-3.7562,-3.7565,-3.7644,-3.7617,-3.7572,-3.7564,-3.757,-3.7601,-3.7622,-3.7628,-3.7753,-3.7624,-3.763,-3.7634,-3.7636,-3.7996,-3.8001,0,0,0,0,0,0,-3.7519,-3.7525,-3.7652,-3.7655,-3.754,-3.7569,-3.7573,-3.7608,-3.7616,-3.7612,-3.7574,-3.7565,-3.7614,-3.7621,-3.7629,-3.7798,-3.7631,-3.7637,-3.7641,-3.799,-3.7997,-3.8003,0,0,0,0,0,0,-3.7516,-3.7531,-3.7651,-3.7588,-3.7601,-3.7578,-3.7619,-3.7612,-3.7633,-3.7618,-3.7613,-3.7601,-3.761,-3.762,-3.772,-3.7798,-3.764,-3.7646,-3.7983,-3.7992,-3.8,-3.814,0,0,0,0,0,0,-3.7511,-3.7531,-3.7586,-3.759,-3.7605,-3.7742,-3.7624,-3.7617,-3.7645,-3.7632,-3.7642,-3.7638,-3.7606,-3.7711,-3.7726,-3.7804,-3.7651,-3.7976,-3.7987,-3.7997,-3.8128,-3.8152,-3.8172,0,0,0,0,0,-3.7505,-3.7624,-3.759,-3.7606,-3.7674,-3.7747,-3.7755,-3.7716,-3.7652,-3.7707,-3.7697,-3.7638,-3.7788,-3.7722,-3.7738,-3.782,-3.7971,-3.7984,-3.7997,-3.8118,-3.8147,-3.8172,0,0,0,0,0,0,-3.763,-3.7623,-3.7585,-3.7709,-3.773,-3.7727,-3.7796,-3.7749,-3.7787,-3.7774,-3.7724,-3.7727,-3.7836,-3.7838,-3.7765,-3.796,-3.7868,-3.7885,-3.7955,-3.7982,-3.8004,-3.8001,-3.7656,0,0,0,0,0,-3.7672,-3.7732,-3.7723,-3.7833,-3.7845,-3.7819,-3.785,-3.7818,-3.7837,-3.7844,-3.7842,-3.7862,-3.7913,-3.7948,-3.7994,-3.8128,-3.8128,-3.8192,-3.8214,-3.8232,-3.8247,-3.8316,-3.8345,-3.8045,-3.8045,-3.8045,0,0,-3.7759,-3.7763,-3.7804,-3.7858,-3.787,-3.7933,-3.7827,-3.7898,-3.7944,-3.7855,-3.7949,-3.7948,-3.7967,-3.8084,-3.8136,-3.8089,-3.833,-3.8249,-3.8263,-3.8268,-3.8332,-3.8361,-3.8386,-3.8054,-3.8052,-3.8051,0,0,-3.7949,-3.7959,-3.8051,-3.8065,-3.8085,-3.8066,-3.8089,-3.8094,-3.809,-3.8184,-3.8118,-3.8172,-3.8261,-3.8277,-3.8297,-3.8494,-3.844,-3.851,-3.8626,-3.8694,-3.8718,-3.8738,-3.8807,-3.8833,-3.8525,-3.8525,-3.8526,0,-3.8054,-3.8147,-3.8104,-3.818,-3.8205,-3.8128,-3.822,-3.8236,-3.827,-3.8289,-3.8237,-3.8347,-3.8354,-3.8474,-3.8522,-3.8541,-3.8564,-3.8508,-3.8718,-3.8738,-3.8757,-3.8822,-3.8848,-3.8534,-3.8533,-3.8532,-3.8531,0,-3.8275,-3.8341,-3.8413,-3.8447,-3.8481,-3.8565,-3.8534,-3.8573,-3.8539,-3.8526,-3.8622,-3.8628,-3.8674,-3.87,-3.8667,-3.8814,-3.8785,-3.8727,-3.8633,-3.8795,-3.8855,-3.8879,-3.8546,-3.8543,-3.854,-3.8538,0,0,-3.8544,-3.8555,-3.8582,-3.8596,-3.8612,-3.8661,-3.8741,-3.8786,-3.882,-3.8846,-3.8911,-3.8989,-3.8935,-3.8957,-3.8926,-3.8986,-3.914,-3.892,-3.8919,-3.8959,-3.9301,-3.9344,-3.9374,-3.9105,-3.911,-3.9113,-3.9299,0,-3.8731,-3.8868,-3.8832,-3.8969,-3.9028,-3.8955,-3.9025,-3.9042,-3.9032,-3.908,-3.9069,-3.9124,-3.9049,-3.9062,-3.9119,-3.9109,-3.9207,-3.9095,-3.9164,-3.9167,-3.916,-3.9405,-3.9451,-3.9626,-3.9322,-3.9326,-3.9329,0,-3.8967,-3.9002,-3.9145,-3.915,-3.9174,-3.9237,-3.9275,-3.9322,-3.934,-3.9328,-3.9354,-3.931,-3.9388,-3.9295,-3.9401,-3.9326,-3.9352,-3.9351,-3.9357,-3.9361,-3.9257,-3.9414,-3.9681,-3.9707,-3.9366,-3.9363,-3.9361,0,-3.9147,-3.9231,-3.9326,-3.9341,-3.935,-3.9396,-3.9402,-3.9414,-3.9444,-3.9477,-3.9495,-3.9537,-3.956,-3.9593,-3.9562,-3.9497,-3.9672,-3.9577,-3.9664,-3.9665,-3.9703,-3.9701,-3.9976,-3.9723,-3.9722,-3.9722,-3.9721,0,-3.9359,-3.9449,-3.9407,-3.9466,-3.9564,-3.9522,-3.962,-3.9617,-3.9629,-3.9685,-3.9626,-3.968,-3.9635,-3.9685,-3.9661,-3.9752,-3.9763,-3.9755,-3.9747,-3.976,-3.9761,-3.9775,-3.9761,-3.9729,-3.9727,-3.9726,-3.9725,0,-3.9576,-3.9553,-3.9652,-3.9653,-3.9655,-3.9727,-3.9727,-3.9781,-3.9767,-3.9839,-3.9854,-3.9832,-3.9887,-3.986,-3.9918,-3.9901,-4.0018,-3.9995,-4.0012,-4.0006,-4.0094,-4.0085,-4.0387,-4.0424,-4.0148,-4.0151,-4.0153,0,-3.9712,-3.9779,-3.9787,-3.9821,-3.9831,-3.9886,-3.9916,-3.9876,-3.9909,-3.9934,-3.9985,-4.0036,-4.0074,-4.0167,-4.0155,-4.0199,-4.0176,-4.0278,-4.0182,-4.0192,-4.0175,-4.0171,-4.0177,-4.0297,-4.03,-4.0303,-4.0305,0,-3.9955,-3.994,-3.9985,-4.0027,-4.0064,-4.0094,-4.0119,-4.015,-4.0112,-4.0152,-4.0208,-4.0238,-4.0297,-4.0348,-4.0386,-4.0391,-4.0342,-4.0336,-4.0358,-4.0371,-4.0378,-4.0374,-4.0064,-4.0329,-4.0326,-4.0325,-4.0323,-4.0322,-4.0135,-4.0191,-4.0205,-4.0257,-4.0272,-4.0297,-4.0348,-4.034,-4.0387,-4.0432,-4.0406,-4.0472,-4.0487,-4.0533,-4.0544,-4.0595,-4.0554,-4.0586,-4.0594,-4.0603,-4.0614,-4.0371,-4.0602,-4.0601,-4.06,-4.06,-4.0599,0,-4.0373,-4.0379,-4.0427,-4.0465,-4.0506,-4.0457,-4.0482,-4.0519,-4.0578,-4.0597,-4.0636,-4.07,-4.0749,-4.0742,-4.0786,-4.0828,-4.0806,-4.0841,-4.0837,-4.0838,-4.0649,-4.0624,-4.0857,-4.0857,-4.0857,-4.0857,-4.0857,-4.0857,-4.0502,-4.0594,-4.0581,-4.0679,-4.0684,-4.0748,-4.0767,-4.0789,-4.0803,-4.0878,-4.0919,-4.0914,-4.0922,-4.0966,-4.1009,-4.1005,-4.1024,-4.1066,-4.1055,-4.0877,-4.0852,-4.0827,-4.0804,-4.1071,-4.1071,-4.124,-4.1241,-4.1242]},{"header":{"parameterUnit":"m.s-1","parameterCategory":1,"la1":30.2991,"la2":30.254,"lo1":-89.0895,"lo2":-89.0444,"dy":0.0017,"dx":0.0017,"nx":28,"ny":28,"refTime":"2025-12-19T03:00:00:Z","depth":0,"parameterNumber":3,"parameterNumberName":"V-component_of_WINDS"},"data":[0,0,0,0,0,0,0,0,0,0,0,0,0,0,0,0,0,0,0,0,0,0,0,0,0,0,0,0,0,0,0,0,0,0,0,0,0,0,0,0,0,0,0,0,0,0,0,0,0,0,0,0,0,0,0,0,0,0,-0.3485,-0.3486,0,-0.3541,-0.3541,-0.3542,-0.3569,-0.3569,-0.3569,-0.3569,-0.3628,-0.3629,-0.3631,0,0,0,0,0,0,0,0,0,0,0,0,0,-0.3403,-0.3405,-0.3485,-0.3486,-0.3486,-0.354,-0.3541,-0.3542,-0.3569,-0.3569,-0.3569,-0.3569,-0.3627,-0.3629,-0.3631,0,0,0,0,0,0,0,0,0,0,0,0,0,-0.3447,-0.3405,-0.3485,-0.3506,-0.3509,-0.354,-0.3541,-0.3542,-0.3569,-0.3569,-0.3569,-0.3569,-0.3626,-0.3629,-0.3631,-0.3646,0,0,-0.3638,-0.3639,0,0,0,0,0,0,0,0,-0.3444,-0.345,-0.3503,-0.3505,-0.3508,-0.3548,-0.3534,-0.3577,-0.3569,-0.3546,-0.3569,-0.3569,-0.3601,-0.3606,-0.3616,-0.3648,-0.3651,-0.3638,-0.364,-0.3641,-0.3641,0,0,0,0,0,0,0,-0.3441,-0.3448,-0.3507,-0.3503,-0.3507,-0.3514,-0.352,-0.3542,-0.3573,-0.3548,-0.355,-0.3557,-0.3603,-0.3614,-0.3618,-0.3652,-0.3638,-0.364,-0.3642,-0.3643,-0.3698,-0.3698,0,0,0,0,0,0,-0.3435,-0.3445,-0.3505,-0.3509,-0.3475,-0.3515,-0.3522,-0.3535,-0.3573,-0.3579,-0.3556,-0.3558,-0.361,-0.3615,-0.362,-0.3639,-0.3641,-0.3643,-0.3644,-0.3698,-0.3698,-0.3698,0,0,0,0,0,0,-0.3433,-0.344,-0.3503,-0.3477,-0.3486,-0.3516,-0.3531,-0.3536,-0.3547,-0.3579,-0.3585,-0.3562,-0.361,-0.3616,-0.3639,-0.3641,-0.3644,-0.3646,-0.3698,-0.3698,-0.3698,-0.3677,0,0,0,0,0,0,-0.343,-0.3439,-0.3445,-0.3477,-0.3487,-0.3521,-0.3531,-0.3537,-0.3551,-0.3553,-0.3586,-0.3591,-0.361,-0.3635,-0.3641,-0.3645,-0.3648,-0.3698,-0.3698,-0.3698,-0.3678,-0.3677,-0.3676,0,0,0,0,0,-0.3427,-0.3437,-0.3445,-0.3452,-0.3495,-0.3521,-0.3527,-0.3548,-0.3551,-0.3557,-0.3577,-0.359,-0.364,-0.3637,-0.3644,-0.3648,-0.3698,-0.3698,-0.3698,-0.3678,-0.3677,-0.3676,0,0,0,0,0,0,-0.3405,-0.3442,-0.3451,-0.3472,-0.3493,-0.3525,-0.3534,-0.3546,-0.3567,-0.3568,-0.3594,-0.3601,-0.3621,-0.3637,-0.3633,-0.3664,-0.367,-0.3671,-0.3653,-0.3652,-0.3651,-0.3646,-0.365,0,0,0,0,0,-0.3402,-0.342,-0.3451,-0.3467,-0.3477,-0.3503,-0.3515,-0.353,-0.3553,-0.3562,-0.3584,-0.3607,-0.3627,-0.364,-0.3661,-0.368,-0.3688,-0.3686,-0.3685,-0.3684,-0.3685,-0.3696,-0.3696,-0.3698,-0.3698,-0.3698,0,0,-0.3398,-0.342,-0.343,-0.3463,-0.3481,-0.3499,-0.3511,-0.3529,-0.3543,-0.3565,-0.3587,-0.3604,-0.3631,-0.3651,-0.3661,-0.3665,-0.3686,-0.3684,-0.3683,-0.3685,-0.3696,-0.3696,-0.3696,-0.3698,-0.3698,-0.3698,0,0,-0.3398,-0.3416,-0.3431,-0.3448,-0.3475,-0.3493,-0.3496,-0.3526,-0.3538,-0.356,-0.3577,-0.3594,-0.3629,-0.3647,-0.3661,-0.3666,-0.3678,-0.3672,-0.3666,-0.3676,-0.3676,-0.3676,-0.3678,-0.3678,-0.3673,-0.3673,-0.3673,0,-0.3389,-0.3416,-0.3437,-0.3454,-0.3468,-0.3488,-0.3503,-0.3519,-0.3551,-0.3561,-0.3564,-0.3608,-0.3627,-0.3652,-0.3653,-0.3664,-0.3668,-0.3669,-0.3674,-0.3675,-0.3675,-0.3677,-0.3677,-0.3672,-0.3672,-0.3672,-0.3672,0,-0.3403,-0.3421,-0.3429,-0.3459,-0.3474,-0.349,-0.3514,-0.3526,-0.3539,-0.3556,-0.3578,-0.3601,-0.3627,-0.3634,-0.3647,-0.366,-0.3661,-0.3669,-0.3676,-0.3673,-0.3675,-0.3676,-0.3671,-0.3671,-0.3671,-0.3671,0,0,-0.3392,-0.3432,-0.3435,-0.3448,-0.3478,-0.3493,-0.3509,-0.3534,-0.3544,-0.3565,-0.3579,-0.3608,-0.3615,-0.363,-0.3645,-0.3654,-0.3656,-0.3661,-0.3662,-0.3659,-0.3672,-0.3666,-0.3666,-0.3664,-0.3665,-0.3665,-0.367,0,-0.3396,-0.3426,-0.3445,-0.3467,-0.3484,-0.3503,-0.3517,-0.3537,-0.3553,-0.357,-0.3588,-0.3608,-0.3616,-0.3625,-0.3634,-0.3654,-0.3659,-0.3654,-0.3678,-0.3679,-0.3671,-0.3668,-0.3662,-0.3665,-0.3671,-0.3671,-0.3671,0,-0.3405,-0.3425,-0.3449,-0.3476,-0.3484,-0.3497,-0.352,-0.3535,-0.3559,-0.3569,-0.3586,-0.3601,-0.3619,-0.3623,-0.3649,-0.3644,-0.3656,-0.3666,-0.3667,-0.3671,-0.3675,-0.3671,-0.3667,-0.3667,-0.3673,-0.3672,-0.3672,0,-0.3394,-0.3427,-0.3445,-0.3456,-0.3489,-0.3497,-0.3511,-0.3534,-0.3547,-0.3567,-0.3576,-0.3598,-0.361,-0.3627,-0.3648,-0.3649,-0.3671,-0.3677,-0.3681,-0.368,-0.3685,-0.3684,-0.3682,-0.3691,-0.3691,-0.3691,-0.3691,0,-0.3397,-0.3411,-0.3441,-0.3452,-0.3468,-0.3489,-0.3504,-0.352,-0.354,-0.3555,-0.3572,-0.3586,-0.3612,-0.3629,-0.3645,-0.3663,-0.3669,-0.3678,-0.3682,-0.3677,-0.3675,-0.3684,-0.3685,-0.3692,-0.3691,-0.3691,-0.3691,0,-0.3388,-0.3409,-0.343,-0.3458,-0.3466,-0.3476,-0.3501,-0.3512,-0.3528,-0.3547,-0.3552,-0.3578,-0.3598,-0.362,-0.3648,-0.3659,-0.3677,-0.3683,-0.3669,-0.3671,-0.3673,-0.3673,-0.3677,-0.3679,-0.3686,-0.3686,-0.3686,0,-0.3389,-0.34,-0.3429,-0.344,-0.3453,-0.347,-0.3483,-0.3504,-0.3517,-0.3543,-0.3552,-0.3573,-0.3592,-0.3623,-0.3645,-0.3666,-0.3673,-0.3673,-0.3676,-0.367,-0.3673,-0.3672,-0.3673,-0.3672,-0.3672,-0.3672,-0.3671,0,-0.3388,-0.3397,-0.3415,-0.3435,-0.345,-0.3468,-0.3486,-0.3494,-0.3519,-0.3532,-0.3553,-0.3567,-0.3595,-0.3616,-0.3639,-0.3654,-0.3667,-0.367,-0.3672,-0.3667,-0.3658,-0.3662,-0.3666,-0.367,-0.367,-0.367,-0.367,-0.367,-0.3384,-0.3394,-0.3416,-0.3435,-0.345,-0.3467,-0.3479,-0.3496,-0.3513,-0.3537,-0.3549,-0.3569,-0.3591,-0.3624,-0.3638,-0.3655,-0.3659,-0.3662,-0.3662,-0.3663,-0.3661,-0.3655,-0.3659,-0.3659,-0.3659,-0.3659,-0.3659,0,-0.3384,-0.3398,-0.3415,-0.344,-0.3454,-0.3464,-0.3484,-0.3496,-0.3513,-0.3532,-0.355,-0.3573,-0.3593,-0.3616,-0.3637,-0.3646,-0.3652,-0.3651,-0.3651,-0.3654,-0.3657,-0.3653,-0.3646,-0.3646,-0.3646,-0.3646,-0.3646,-0.3646,-0.3385,-0.3403,-0.3414,-0.3439,-0.3454,-0.3474,-0.3484,-0.3499,-0.3515,-0.354,-0.3556,-0.357,-0.3591,-0.3614,-0.3633,-0.3639,-0.3646,-0.3643,-0.3651,-0.3653,-0.3654,-0.3655,-0.3651,-0.3644,-0.3644,-0.3647,-0.3647,-0.3647]}]]